Location: Wells
(51.2093°N, 2.6446°W)
Time: 22:58:43
(UTC+00:00)

RS-44 - Visible Passes

Search period start: 13 March 2026 00:00
Search period end: 23 March 2026 00:00
Orbit: 1174 x 1511 km, 82.5° (Epoch: 13 March)

Date Brightness Start Highest point End Pass type
(mag) Time Alt. Az. Time Alt. Az. Time Alt. Az.
13 Mar ? 00:30:40 10° N 00:36:01 18° NE 00:41:33 10° E visible
13 Mar ? 02:23:08 10° N 02:31:16 64° ENE 02:34:58 37° SE visible
13 Mar ? 04:17:06 10° NNW 04:24:21 36° W 04:27:30 28° WSW visible
13 Mar ? 19:02:06 10° WNW 19:05:06 13° NW 19:08:10 10° NNW visible
14 Mar ? 00:53:56 10° N 01:00:32 26° ENE 01:05:26 16° E visible
14 Mar ? 02:46:53 10° N 02:55:09 88° E 02:57:59 49° SSE visible
14 Mar ? 04:41:22 10° NNW 04:47:41 25° WNW 04:50:31 21° WSW visible
14 Mar ? 23:27:43 10° NNE 23:28:20 10° NE 23:28:56 10° NE visible
15 Mar ? 01:17:23 10° N 01:24:51 36° ENE 01:28:33 26° ESE visible
15 Mar ? 03:10:43 10° NNW 03:18:52 67° W 03:21:06 51° SSW visible
15 Mar ? 05:06:04 10° NW 05:10:51 17° WNW 05:13:39 14° W visible
15 Mar ? 23:48:58 10° NNE 23:53:12 15° NE 23:57:33 10° ENE visible
16 Mar ? 01:40:59 10° N 01:49:00 50° ENE 01:51:45 39° ESE visible
16 Mar ? 03:34:39 10° NNW 03:42:28 48° W 03:44:18 42° WSW visible
16 Mar ? 05:32:29 10° WNW 05:33:51 10° WNW 05:35:14 10° WNW visible
17 Mar ? 00:12:00 10° N 00:17:53 20° NE 00:22:27 14° E visible
17 Mar ? 02:04:40 10° N 02:12:59 70° ENE 02:15:01 55° SE visible
17 Mar ? 03:58:45 10° NNW 04:05:55 33° W 04:07:35 31° WSW visible
17 Mar ? 18:44:22 10° WNW 18:46:56 12° NW 18:49:34 10° NNW visible
18 Mar ? 00:35:21 10° N 00:42:21 28° ENE 00:45:46 22° E visible
18 Mar ? 02:28:26 10° NNW 02:36:49 85° W 02:38:20 66° S visible
18 Mar ? 04:23:05 10° NNW 04:29:12 23° WNW 04:30:54 22° W visible
18 Mar ? 23:07:43 10° NNE 23:10:17 11° NE 23:12:52 10° ENE visible
19 Mar ? 00:58:52 10° N 01:06:38 40° ENE 01:09:07 33° E visible
19 Mar ? 02:52:18 10° NNW 03:00:31 62° W 03:01:41 57° SW visible
19 Mar ? 04:47:57 10° NW 04:52:19 15° WNW 04:54:15 14° W visible
19 Mar ? 23:30:12 10° N 23:35:07 16° NE 23:39:57 10° E visible
20 Mar ? 01:22:30 10° N 01:30:45 55° ENE 01:32:31 48° ESE visible
20 Mar ? 03:16:17 10° NNW 03:24:04 44° W 03:25:05 42° WSW visible
20 Mar ? 23:53:23 10° N 23:59:44 23° NE 00:03:22 18° E visible
21 Mar ? 01:46:13 10° N 01:54:42 76° ENE 01:55:56 67° SE visible
21 Mar ? 03:40:25 10° NNW 03:47:29 31° W 03:48:30 30° W visible
22 Mar ? 00:16:49 10° N 00:24:10 31° ENE 00:26:49 27° E visible
22 Mar ? 02:10:01 10° NNW 02:18:31 79° W 02:19:23 72° SSW visible
22 Mar ? 04:04:52 10° NNW 04:10:43 21° WNW 04:11:57 20° W visible
22 Mar ? 22:48:40 10° NNE 22:52:13 13° NE 22:55:51 10° ENE visible
